sat.trackr.live / text

‹ back to catalog

STARLINK-31096

NORAD 58592 · 2023-200D

PAYLOAD ACTIVE UNKNOWN

§ Identity

Operator
Country
US
Launch date
2023-12-19
Launch site
AFETR
Launch vehicle
Mass (kg)
RCS (m²)

Purposes: comms

External: N2YO · Heavens-Above · Gunter

§ Orbital elements

Epoch: 2026-05-25T03:56:06.714240Z

Period
94.01 min
Inclination
42.9964°
Eccentricity
0.0009740
Mean motion
15.31757888 rev/d
Perigee alt
463.9 km
Apogee alt
477.2 km
Semi-major
6,848.7 km
B*
1.6853e-3
RAAN
97.2008°
Arg perigee
168.0197°
Mean anomaly
192.0889°
Rev number
13,530

§ Raw data

STARLINK-310961 58592U 23200D   26145.16396660  .00052939  00000+0  16853-2 0  99932 58592  42.9964  97.2008 0009740 168.0197 192.0889 15.31757888135305

JSON: /api/v1/satellites/58592 · /tle

For live sub-satellite position, see the globe view (requires WebGL).

§ Visibility from observer

Set your observer location to see the next 7 days of passes ≥ 10°. The values pass through the URL so the page stays shareable.

No JS? Fill the form by hand. The geolocation button needs JavaScript.